www.pogodaiklimat.ru

Погода и климат >> Архив погоды >> Россия >> Якутия >> Тикси


АРХИВ ПОГОДЫ в Тикси

Время (UTC), дата Ветер
(напр.,м/с)
 
Видим.   Явления Облачность Т
(С)
Тd
(С)
f
(%)
Тe
(С)
Тes
(С)
Комфортность P
(гПа)
Po
(гПа)
Тmin
(С)
Tmax
(С)
R
(мм)
R24
(мм)
S
(см)
09 11.08 СВ 4 200 м туман ?/? +10.3 +10.1 99 +7 +7 по сезону 1013.3 1012.5
12 11.08 С 3 50 м слаб. морось {туман} туман ?/? +9.3 +9.3 100 +7 +7 по сезону 1013.7 1012.9 +11.4 0.0
15 11.08 С 1 50 м слаб. морось {туман} туман ?/? +8.3 +8.2 99 +7 +7 по сезону 1013.3 1012.5
18 11.08 СЗ 1 50 м слаб. морось {туман} туман ?/? +6.1 +6.1 100 +5 +5 по сезону 1012.7 1011.9
21 11.08 З 1 4000 м дымка {туман} 10/10 100 м
[St]
+7.6 +7.6 100 +6 +6 по сезону 1012.8 1012.0
00 12.08 З 2 50 м слаб. морось {туман} туман ?/? +10.6 +10.6 100 +9 +9 тепло 1013.0 1012.2 +5.8 0.4
03 12.08 В 1 50 м слаб. морось {туман} туман ?/? +12.5 +12.5 100 +12 +12 тепло 1012.6 1011.8
06 12.08 СВ 3 4000 м дымка {туман} 10/0
[Ac und]
+12.5 +11.7 95 +11 +12 тепло 1012.6 1011.8
09 12.08 СВ 4 4000 м дым 10/0
[Cs]
+14.2 +11.4 83 +13 +14 тепло 1012.6 1011.8
12 12.08 СВ 2 4000 м дым 10/0
[Cs]
+13.6 +11.1 85 +13 +13 тепло 1013.1 1012.3 +14.4 0.0
15 12.08 С 1 4000 м дым {туман} 10/0
[Cs]
+13.3 +10.0 80 +13 +13 тепло 1013.8 1013.0
18 12.08 В 3 4000 м дым {туман} 10/0
[Cs]
+13.7 +6.1 60 +13 +13 тепло 1014.3 1013.5
21 12.08 В 3 4000 м дым 10/0
[Cs]
+12.3 +8.0 75 +11 +11 тепло 1014.9 1014.1
00 13.08 СВ 5 4000 м дым 10/0
[Cs]
+12.8 +8.3 74 +11 +12 тепло 1015.4 1014.6 +10.4
03 13.08 В 4 10 км дым 3/0
[Ci fib]
+13.3 +11.4 88 +12 +16 тепло 1015.4 1014.6
06 13.08 В 4 10 км дым 6/0
[Ci sp]
+12.6 +11.5 93 +11 +13 тепло 1015.1 1014.3
09 13.08 В 5 10 км дым 6/0
[Ci sp]
+13.3 +9.6 78 +11 +12 тепло 1014.7 1013.9
12 13.08 С 1 20 км 3/0
[Ci fib]
+11.1 +9.7 91 +11 +11 тепло 1014.5 1013.7 +14.3
15 13.08 В 2 20 км местами туман поземный 1/0
[Ci fib]
+10.1 +8.9 92 +8 +8 тепло 1013.8 1013.0
18 13.08 ЮЗ 3 200 м туман 4/0
[Ci fib]
+3.9 +3.9 100 -0 -0 прохладно 1013.2 1012.4
21 13.08 ЮЗ 2 50 м слаб. морось {туман} туман ?/? +6.8 +6.8 100 +4 +4 по сезону 1012.7 1011.9
00 14.08 Ю 1 200 м слаб. морось {туман} туман ?/? +9.0 +9.0 100 +8 +8 по сезону 1012.5 1011.7 +3.5 0.3
03 14.08 СВ 2 4000 м слаб. морось {туман} 10/10 200 м
[St]
+10.3 +9.5 95 +9 +9 тепло 1012.0 1011.2
06 14.08 СВ 5 4000 м дымка {туман} 10/3 100 м
[St Cs]
+11.1 +9.9 92 +8 +10 по сезону 1011.7 1010.9
09 14.08 СВ 4 200 м туман ?/? +10.0 +9.6 97 +7 +7 по сезону 1011.7 1010.9
12 14.08 штиль 0 50 м туман ?/? +8.7 +8.7 100 +8 +8 по сезону 1012.5 1011.7 +11.4 0.0
15 14.08 З 2 <100 м туман ?/? +5.7 +5.7 100 +3 +3 по сезону 1012.8 1012.0
18 14.08 штиль 0 20 км туман поземный 10/0
[Cs]
+6.5 +6.5 100 +5 +5 по сезону 1013.9 1013.1
21 14.08 С 3 50 м слаб. морось {туман} туман ?/? +8.8 +8.8 100 +6 +6 по сезону 1015.8 1015.0
00 15.08 СЗ 1 4000 м слаб. морось {туман} 10/10 300 м
[St]
+10.9 +10.5 97 +10 +10 тепло 1017.2 1016.4 +4.2 0.0
03 15.08 СЗ 5 10 км дым {морось} 10/10 300 м
[Sc]
+12.8 +10.9 88 +11 +11 тепло 1018.4 1017.6
06 15.08 С 5 10 км дым {морось} 10/10 600 м
[Sc]
+13.1 +8.4 73 +11 +11 тепло 1019.3 1018.5
09 15.08 С 6 10 км дым 10/10 600 м
[Sc]
+11.0 +7.6 80 +8 +8 по сезону 1020.7 1019.9
12 15.08 С 5 10 км дым 10/10 300 м
[Sc]
+10.5 +7.3 81 +8 +8 по сезону 1021.9 1021.1 +13.3 0.0
15 15.08 С 6 10 км дым 10/10 300 м
[Sc]
+8.8 +6.6 86 +5 +5 по сезону 1022.8 1022.0
18 15.08 С 6 4000 м слаб. морось 10/10 300 м
[St]
+7.2 +6.3 94 +3 +3 по сезону 1023.5 1022.7
21 15.08 С 5 4000 м слаб. морось 10/10 200 м
[St]
+6.9 +6.0 94 +3 +3 по сезону 1024.7 1023.9
00 16.08 С 5 4000 м слаб. морось 10/10 300 м
[St]
+7.1 +6.6 97 +3 +3 по сезону 1025.3 1024.5 +6.4 0.0
03 16.08 С 6 20 км {морось} 10/10 300 м
[Sc]
+9.3 +5.5 77 +6 +6 по сезону 1025.3 1024.5
06 16.08 СВ 4 10 км слаб. дождь {морось} 10/10 300 м
[Sc]
+9.1 +7.8 92 +6 +6 по сезону 1025.3 1024.5
09 16.08 СВ 6 10 км слаб. дождь 10/10 300 м
[Sc]
+8.9 +8.0 94 +5 +5 по сезону 1025.3 1024.5
12 16.08 СВ 6 10 км слаб. дождь 10/10 200 м
[Sc]
+8.5 +6.5 87 +4 +4 по сезону 1025.2 1024.4 +10.5 0.0
15 16.08 СВ 3 4000 м слаб. морось {дождь} 10/10 200 м
[St]
+7.8 +7.3 97 +5 +5 по сезону 1025.1 1024.3
18 16.08 В 5 4000 м слаб. морось {дождь} 10/10 200 м
[St]
+9.2 +8.6 96 +6 +6 по сезону 1024.6 1023.8
21 16.08 В 6 10 км слаб. дождь {морось} 10/10 300 м
[Sc]
+9.0 +8.6 97 +5 +5 по сезону 1024.3 1023.5
00 17.08 В 8
{10}
10 км слаб. дождь 10/10 300 м
[Sc]
+9.5 +8.2 92 +5 +5 по сезону 1024.2 1023.4 +7.7 0.3
03 17.08 В 7
{10}
4000 м слаб. дождь 10/10 300 м
[Sc]
+9.5 +8.2 92 +5 +5 по сезону 1024.2 1023.4
06 17.08 В 7-10
{11}
4000 м слаб. дождь 10/10 300 м
[Sc]
+9.8 +9.0 95 +6 +6 по сезону 1023.4 1022.6
09 17.08 В 6
{10}
4000 м слаб. дождь 10/10 300 м
[Sc]
+9.9 +8.7 92 +6 +6 по сезону 1023.3 1022.5
12 17.08 В 6 4000 м слаб. дождь 10/10 300 м
[Sc]
+9.8 +8.5 92 +6 +6 по сезону 1023.5 1022.7 +10.1 0.0
15 17.08 В 6 4000 м слаб. дождь 10/10 300 м
[Sc]
+9.8 +9.2 96 +6 +6 по сезону 1022.8 1022.0
18 17.08 В 5 4000 м слаб. дождь 10/10 300 м
[Sc]
+10.0 +9.4 96 +7 +7 тепло 1022.3 1021.5
21 17.08 ЮВ 5 4000 м слаб. дождь 10/10 300 м
[Sc]
+9.8 +9.0 95 +6 +6 по сезону 1022.4 1021.6
00 18.08 В 4 4000 м слаб. морось {дождь} 10/10 300 м
[St]
+10.0 +9.8 99 +7 +7 по сезону 1021.9 1021.1 +9.0 0.3
03 18.08 В 4 4000 м слаб. морось 10/10 100 м
[St]
+9.7 +9.3 97 +7 +7 по сезону 1021.5 1020.7
06 18.08 СВ 2 4000 м слаб. морось 10/10 100 м
[St]
+9.9 +9.5 97 +8 +8 по сезону 1020.6 1019.8

 

Местоположение метеостанции Тикси (Якутия, Россия): широта 71.58 долгота 128.90 высота над уровнем моря 7 м.

В архиве по умолчанию представлена погода в Тикси за последнюю неделю. Архивные данные за месяц целиком и за предыдущие месяцы, начиная с января 2011 года, Вы можете получить, выбрав интересующий диапазон дат из раскрывающегося списка и нажав кнопку "Ввод!".


*Определитесь, кто Вы:
робот инопланетянин человек

Внимание! Время в таблицах - всемирное. Для получения местного времени необходимо прибавить поправку, которая равна 9 ч.

Смотрите также архив погоды в соседних городах и на ближайших метеорологических станциях:

Погода на Мысе Быков (Якутия, Россия) (47 км)
Погода в Кюсюре (Якутия, Россия) (114 км)
Погода на Столб Острове (Якутия, Россия) (128 км)
Погода в Тюмяти (Якутия, Россия) (192 км)
Погода в Юбилейной (Якутия, Россия) (277 км)
Погода в Усть-Куйге (Якутия, Россия) (301 км)
Погода на Усть-Оленеке (Якутия, Россия) (346 км)
Погода в Джарджане (Якутия, Россия) (367 км)
Погода на Мысе Кигилях (Якутия, Россия) (413 км)
Погода в Батагай-Алыте (Якутия, Россия) (427 км)

Пояснения к столбцам:

Ветер - указаны скорость ветра в м/с - средняя за 10 мин, порывы в срок и между сроками (в фигурных скобках) и направление, откуда дует ветер: С - северный, СВ - северо-восточный, В - восточный, ЮВ - юго-восточный, Ю - южный, ЮЗ - юго-западный, З - западный, СЗ - северо-западный.
Видимость - горизонтальная дальность видимости в метрах или километрах. При видимости от 1 до 10 км при отсутствии осадков обычно наблюдается дымка, при ухудшении видимости до 1 км и менее - туман. В сухую погоду видимость может ухудшаться дымом, пылью или мглою.
Явления - указаны атмосферные явления, наблюдавшиеся в срок или в последний час перед сроком; фигурными скобками обозначены явления, наблюдавшиеся между сроками (за 1-3 часа до срока); квадратными скобками обозначены град или гололедные отложения с указанием их диаметра в мм.
Облачность - указаны через наклонную черту общая и нижняя облачность в баллах и высота нижней границы облаков в метрах; квадратными скобками обозначены формы облаков: Ci - перистые, Cs - перисто-слоистые, Cc - перисто-кучевые, Ac - высококучевые, As - высокослоистые, Sc - слоисто-кучевые, Ns - слоисто-дождевые, Cu - кучевые, Cb - кучево-дождевые. Подробнее классификацию облаков см. в Атласе облаков (PDF).
T - Температура воздуха - температура, измеренная на высоте 2 м над землей.
Td - Температура точки росы - температура, при понижении до которой содержащийся в воздухе водяной пар достигнет насыщения.
f - Относительная влажность воздуха - влажноcть воздуха, измеренная на высоте 2 м над землей.
Te - Эффективная температура - температура, которую ощущает одетый по сезону человек в тени. Характеристика душности погоды. При расчете учитывается влияние влажности воздуха и скорости ветра на теплоощущения человека.
Tes - Эффективная температура на солнце - температура, которую ощущает человек, с поправкой на солнечный нагрев. Характеристика знойности погоды. Зависит от высоты солнца над горизонтом, облачности и скорости ветра. Ночью, в пасмурную погоду, а также при ветре 12 м/с и более поправка равна нулю.
P - Атмосферное давление - приведенное к уровню моря атмосферное давление.
Po - Атмосферное давление - измеренное на уровне метеостанции атмосферное давление.
Tmin - Минимальная температура - минимум температуры воздуха на высоте 2 м над землей.
Tmax - Максимальная температура - максимум температуры воздуха на высоте 2 м над землей.
R - Количество осадков - Количество выпавших осадков за период времени, мм. При наведении курсора мыши на число - период времени, за который выпало указанное количество осадков.
R24 - Количество осадков - Количество выпавших осадков за 24 часа, мм.
S - Снежный покров - Высота снежного покрова, см. При наведении курсора мыши на число - состояние снежного покрова и степень покрытия местности в баллах.